N5RML-1 Weather Reports


Display with metric or nautical units.
time (UTC)temp
F
wind
direction
speed
MPH
gust
MPH
rain 1hr
in
rain 24hr
in
rain mn
in
humidity
%
barometer
mb
20260902234520 88 158 2.0 4.0 0.00 0.00 0.00 73 1016.2
20260902233548 89 0.0 0.0 0.00 0.00 0.00 71 1016.3
20260902232536 89 147 3.0 4.0 0.00 0.00 0.00 71 1016.3
20260902231526 89 226 3.0 5.0 0.00 0.00 0.00 70 1016.3
20260902230533 90 217 2.0 4.0 0.00 0.00 0.00 70 1016.2
20260902225523 91 189 0.0 2.0 0.00 0.00 0.00 68 1016.2
20260902224551 92 218 1.0 5.0 0.00 0.00 0.00 66 1016.2
20260902223520 92 221 2.0 5.0 0.00 0.00 0.00 65 1016.3
20260902222529 92 185 3.0 4.0 0.00 0.00 0.00 66 1016.4
20260902221536 92 133 2.0 4.0 0.00 0.00 0.00 67 1016.5
20260902220525 92 138 2.0 5.0 0.00 0.00 0.00 68 1016.6
20260902215554 91 160 2.0 4.0 0.00 0.00 0.00 69 1016.7
20260902214523 89 162 2.0 4.0 0.00 0.00 0.00 71 1016.8
20260902213531 88 160 5.0 5.0 0.00 0.00 0.00 72 1017.0
20260902212521 86 155 2.0 4.0 0.00 0.00 0.00 77 1016.9
20260902211528 87 159 4.0 6.0 0.00 0.00 0.00 77 1017.0
20260902210537 87 177 2.0 4.0 0.00 0.00 0.00 75 1017.1
20260902205526 87 207 2.0 3.0 0.00 0.00 0.00 76 1017.1
20260902204534 87 174 3.0 6.0 0.00 0.00 0.00 76 1017.3
20260902203523 88 201 3.0 6.0 0.00 0.00 0.00 73 1017.3
20260902202531 89 63 4.0 7.0 0.00 0.00 0.00 71 1017.4
20260902201521 93 129 4.0 7.0 0.00 0.00 0.00 65 1017.3
20260902195537 95 153 3.0 5.0 0.00 0.00 0.00 61 1017.1
20260902194526 96 126 3.0 5.0 0.00 0.00 0.00 58 1017.3
20260902193534 96 52 2.0 5.0 0.00 0.00 0.00 54 1017.3
20260902192523 96 144 3.0 5.0 0.00 0.00 0.00 53 1017.4
20260902191534 96 158 3.0 5.0 0.00 0.00 0.00 56 1017.4
20260902190521 95 127 4.0 5.0 0.00 0.00 0.00 57 1017.6
20260902185629 95 84 3.0 5.0 0.00 0.00 0.00 58 1017.7
20260902184538 95 103 2.0 5.0 0.00 0.00 0.00 63 1018.0
20260902183526 94 39 2.0 3.0 0.00 0.00 0.00 68 1018.2
20260902182535 94 22 3.0 5.0 0.00 0.00 0.00 67 1018.1
20260902181524 91 60 2.0 3.0 0.00 0.00 0.00 70 1018.1
20260902180532 92 91 2.0 4.0 0.00 0.00 0.00 69 1018.1
20260902175521 91 19 3.0 5.0 0.00 0.00 0.00 69 1018.2
20260902174530 92 28 2.0 4.0 0.00 0.00 0.00 68 1018.4
20260902173537 94 1 3.0 5.0 0.00 0.00 0.00 65 1018.4
20260902172526 93 23 2.0 4.0 0.00 0.00 0.00 68 1018.8
20260902171534 93 76 3.0 7.0 0.00 0.00 0.00 67 1019.0
20260902170524 93 51 2.0 4.0 0.00 0.00 0.00 68 1019.1
20260902165532 92 18 3.0 5.0 0.00 0.00 0.00 68 1019.2
20260902164521 92 22 3.0 4.0 0.00 0.00 0.00 69 1019.1
20260902163529 91 38 3.0 4.0 0.00 0.00 0.00 71 1019.3
20260902162557 89 10 2.0 4.0 0.00 0.00 0.00 74 1019.4
20260902161526 91 126 1.0 3.0 0.00 0.00 0.00 73 1019.4
20260902160535 89 23 1.0 4.0 0.00 0.00 0.00 75 1019.4
20260902155545 89 5 4.0 7.0 0.00 0.00 0.00 77 1019.5
20260902154532 88 15 3.0 4.0 0.00 0.00 0.00 79 1019.5
20260902153541 90 56 2.0 4.0 0.00 0.00 0.00 74 1019.5
20260902152529 90 45 0.0 3.0 0.00 0.00 0.00 75 1019.5
20260902151519 90 17 2.0 3.0 0.00 0.00 0.00 76 1019.4
20260902150527 87 49 2.0 3.0 0.00 0.00 0.00 81 1019.4
20260902145534 87 116 1.0 4.0 0.00 0.00 0.00 81 1019.4
20260902144544 88 68 0.0 2.0 0.00 0.00 0.00 77 1019.4
20260902143532 90 27 1.0 3.0 0.00 0.00 0.00 74 1019.4
20260902142522 88 141 0.0 3.0 0.00 0.00 0.00 81 1019.3
20260902141610 85 0.0 0.0 0.00 0.00 0.00 85 1019.4
20260902140559 85 0.0 0.0 0.00 0.00 0.00 87 1019.4
20260902135527 83 0.0 0.0 0.00 0.00 0.00 92 1019.4
20260902134555 83 0.0 0.0 0.00 0.00 0.00 93 1019.3
20260902133545 81 0.0 0.0 0.00 0.00 0.00 97 1019.2
20260902132553 80 0.0 0.0 0.00 0.00 0.00 99 1019.1
20260902131522 80 0.0 0.0 0.00 0.00 0.00 99 1019.2
20260902130551 80 0.0 0.0 0.00 0.00 0.00 99 1019.1
20260902125540 80 0.0 0.0 0.00 0.00 0.00 99 1019.0
20260902124528 79 0.0 0.0 0.00 0.00 0.00 99 1018.8
20260902123535 79 0.0 0.0 0.00 0.00 0.00 99 1018.6
20260902122525 79 0.0 0.0 0.00 0.00 0.00 99 1018.5
20260902121533 78 0.0 0.0 0.00 0.00 0.00 99 1018.6
20260902120522 78 0.0 0.0 0.00 0.00 0.00 99 1018.5
20260902115530 78 0.0 0.0 0.00 0.00 0.00 99 1018.4
20260902114520 78 0.0 0.0 0.00 0.00 0.00 99 1018.4
20260902113528 78 0.0 0.0 0.00 0.00 0.00 99 1018.3
20260902112556 78 0.0 0.0 0.00 0.00 0.00 98 1018.3
20260902111606 78 0.0 0.0 0.00 0.00 0.00 98 1018.1
20260902110533 78 0.0 0.0 0.00 0.00 0.00 98 1018.0
20260902105543 78 0.0 0.0 0.00 0.00 0.00 98 1017.9
20260902104531 78 0.0 0.0 0.00 0.00 0.00 98 1017.8
20260902103521 78 0.0 0.0 0.00 0.00 0.00 98 1017.7
20260902102609 78 0.0 0.0 0.00 0.00 0.00 98 1017.8
20260902101536 78 0.0 0.0 0.00 0.00 0.00 98 1017.7
20260902100526 78 0.0 0.0 0.00 0.00 0.00 98 1017.8
20260902095534 78 0.0 0.0 0.00 0.00 0.00 98 1017.7
20260902094523 78 0.0 0.0 0.00 0.00 0.00 97 1017.6
20260902093531 78 0.0 0.0 0.00 0.00 0.00 97 1017.5
20260902092521 78 0.0 0.0 0.00 0.00 0.00 97 1017.5
20260902091529 78 0.0 0.0 0.00 0.00 0.00 97 1017.4
20260902090537 78 0.0 0.0 0.00 0.00 0.00 96 1017.2
20260902085526 78 0.0 0.0 0.00 0.00 0.00 96 1017.2
20260902084534 78 0.0 0.0 0.00 0.00 0.00 96 1017.3
20260902083524 78 0.0 0.0 0.00 0.00 0.00 96 1017.3
20260902082532 78 0.0 0.0 0.00 0.00 0.00 96 1017.3
20260902081521 78 0.0 0.0 0.00 0.00 0.00 95 1017.3
20260902080529 78 0.0 0.0 0.00 0.00 0.00 95 1017.3
20260902075519 78 0.0 0.0 0.00 0.00 0.00 95 1017.2
20260902073535 78 0.0 0.0 0.00 0.00 0.00 94 1017.2
20260902072525 78 0.0 0.0 0.00 0.00 0.00 94 1017.4
20260902071552 79 0.0 0.0 0.00 0.00 0.00 94 1017.4
20260902070750 0 0.0 0.0 0.00 0.00 0.00 1017.5
20260902070522 79 0.0 0.0 0.00 0.00 0.00 94 1017.5
20260902065530 79 0.0 0.0 0.00 0.00 0.00 94 1017.5
20260902064522 79 0.0 0.0 0.00 0.00 0.00 93 1017.5
20260902063528 79 0.0 0.0 0.00 0.00 0.00 93 1017.5
20260902062535 79 0.0 0.0 0.00 0.00 0.00 93 1017.6
20260902061525 79 0.0 0.0 0.00 0.00 0.00 93 1017.6
20260902060533 80 0.0 0.0 0.00 0.00 0.00 92 1017.6
20260902055522 80 0.0 0.0 0.00 0.00 0.00 92 1017.6
20260902054531 80 0.0 0.0 0.00 0.00 0.00 91 1017.7
20260902053520 80 0.0 0.0 0.00 0.00 0.00 91 1017.7
20260902052528 80 0.0 0.0 0.00 0.00 0.00 91 1017.8
20260902051536 80 0.0 0.0 0.00 0.00 0.00 91 1017.7
20260902050526 80 0.0 0.0 0.00 0.00 0.00 91 1017.8
20260902045534 80 0.0 0.0 0.00 0.00 0.00 91 1017.8
20260902044543 80 0.0 0.0 0.00 0.00 0.00 91 1017.8
20260902043532 80 0.0 0.0 0.00 0.00 0.00 90 1017.7
20260902042520 81 0.0 0.0 0.00 0.00 0.00 89 1017.7
20260902041529 81 0.0 0.0 0.00 0.00 0.00 88 1017.8
20260902040536 81 0.0 0.0 0.00 0.00 0.00 88 1017.9
20260902035526 81 0.0 0.0 0.00 0.00 0.00 88 1018.1
20260902034534 82 0.0 0.0 0.00 0.00 0.00 88 1018.2
20260902033544 82 0.0 0.0 0.00 0.00 0.00 88 1018.2
20260902032531 82 0.0 0.0 0.00 0.00 0.00 88 1018.3
20260902031524 82 0.0 0.0 0.00 0.00 0.00 88 1018.4
20260902030529 82 0.0 0.0 0.00 0.00 0.00 88 1018.5
20260902025537 82 0.0 0.0 0.00 0.00 0.00 87 1018.4
20260902024526 82 0.0 0.0 0.00 0.00 0.00 87 1018.4
20260902023554 82 0.0 0.0 0.00 0.00 0.00 87 1018.3
20260902022525 82 0.0 0.0 0.00 0.00 0.00 87 1018.2
20260902021532 82 0.0 0.0 0.00 0.00 0.00 87 1018.0
20260902020521 82 0.0 0.0 0.00 0.00 0.00 86 1017.9
20260902015529 83 0.0 0.0 0.00 0.00 0.00 85 1017.8
20260902014539 83 0.0 0.0 0.00 0.00 0.00 84 1017.6
20260902013526 83 0.0 0.0 0.00 0.00 0.00 84 1017.5
20260902012535 84 113 0.0 1.0 0.00 0.00 0.00 83 1017.4
20260902011525 84 150 1.0 2.0 0.00 0.00 0.00 82 1017.2
20260902010532 84 154 2.0 4.0 0.00 0.00 0.00 81 1017.2
20260902005542 84 139 1.0 3.0 0.00 0.00 0.00 81 1017.2
20260902004530 84 145 2.0 4.0 0.00 0.00 0.00 80 1017.1
20260902003519 84 169 2.0 4.0 0.00 0.00 0.00 79 1017.1
20260902002548 85 156 1.0 2.0 0.00 0.00 0.00 79 1016.9
20260902001535 85 135 1.0 4.0 0.00 0.00 0.00 79 1016.9
20260902000525 85 183 1.0 2.0 0.00 0.00 0.00 79 1016.9
20260901235532 85 137 2.0 3.0 0.00 0.00 0.00 79 1017.0